CAPE
0 0 2 7 1 2 0 2 1 3 3 3 2 4 0 0 0 0 0 0 0 0 0 0 0 0 0 0 0 0 1 1 1 2 2 0 0 0 0 0 0 0 0
5 0 0 13 0 7 7 2 1 7 11 9 5 2 4 0 0 0 0 0 0 0 0 0 0 0 0 0 0 0 1 0 2 1 1 0 0 0 0 0 0 0 0
0 0 0 0 3 8 7 6 5 6 11 15 10 4 0 0 0 0 0 0 1 0 0 0 0 0 0 0 0 0 0 0 0 0 0 0 0 0 0 0 0 0 0
0 0 3 8 5 4 6 6 7 10 9 3 1 0 0 0 0 0 0 3 3 4 3 3 3 0 0 0 0 0 0 0 0 0 0 0 0 0 0 0 0 0 0
0 0 1 8 9 4 9 9 12 9 10 8 0 0 0 0 0 1 1 6 5 3 4 5 5 21 15 3 0 0 0 0 0 0 0 0 0 0 0 0 0 0 0
0 0 9 8 3 0 3 0 1 9 11 11 15 3 0 0 0 1 1 4 8 7 10 7 0 0 0 0 0 0 0 0 0 0 0 0 0 0 0 0 0 0 3
0 0 0 0 0 1 5 5 0 0 0 2 9 17 2 0 0 1 4 2 4 0 0 0 0 0 0 0 5 0 0 0 0 0 0 0 0 0 3 4 3 1 1
0 0 11 0 0 2 3 3 0 0 0 0 0 2 3 0 0 0 12 10 13 0 0 0 0 0 0 10 5 0 0 0 0 0 0 0 0 0 3 1 4 11 4
0 0 0 0 0 0 0 0 0 1 1 5 0 3 0 0 0 3 1 11 7 1 0 0 0 0 0 1 0 0 0 0 0 0 0 0 0 0 0 7 4 18 16
0 0 0 2 0 0 0 0 0 0 2 0 1 8 12 1 0 0 0 0 1 2 2 0 0 0 0 0 0 0 0 0 1 1 3 1 0 0 0 0 0 1 2
0 0 0 0 1 1 1 0 0 0 0 1 0 0 3 7 0 0 0 1 1 0 0 0 0 0 0 0 0 0 0 0 0 0 0 0 0 0 0 0 0 0 0
0 0 0 1 1 0 0 0 0 0 0 0 0 0 7 5 1 0 0 0 0 0 0 0 0 0 0 0 1 2 0 0 0 1 0 0 0 2 0 0 0 0 0
0 0 0 0 0 0 0 0 0 0 0 0 0 1 1 0 0 0 0 0 1 0 0 0 0 0 0 0 0 0 0 0 0 0 0 0 1 2 2 0 0 0 0
1 0 0 0 0 0 0 0 0 0 0 0 0 0 1 1 0 0 0 0 0 2 0 0 0 0 0 0 0 0 0 0 0 0 1 1 0 2 0 0 0 0 0
0 0 0 0 0 1 0 0 0 0 0 0 0 0 0 2 0 0 0 0 0 0 0 1 0 0 0 0 0 0 0 0 0 0 0 1 0 0 0 0 0 0 1
0 0 0 0 0 0 1 0 0 0 0 0 0 0 0 1 0 0 1 0 2 2 0 0 8 1 0 0 0 0 0 0 0 0 0 0 0 0 0 0 0 0 0
5 2 1 2 0 1 1 6 8 7 0 0 1 0 0 1 0 0 0 1 1 1 0 0 3 4 3 0 0 0 0 0 0 0 0 0 0 0 0 0 0 0 0
1 0 3 3 7 3 6 12 20 15 3 6 2 0 0 0 0 0 1 0 0 2 3 0 0 0 0 0 0 0 1 5 2 0 0 0 0 0 0 0 0 0 0
0 0 3 1 3 4 18 18 13 0 0 0 0 0 0 0 0 0 4 4 0 0 1 1 0 0 0 0 0 0 0 0 0 1 6 0 0 0 0 0 0 0 0
0 0 0 0 0 3 12 10 11 14 8 5 0 0 0 0 2 2 1 1 1 2 4 2 0 0 0 0 0 0 0 0 0 0 0 9 8 0 0 0 0 0 0
0 0 0 1 3 1 6 4 3 3 1 0 0 0 0 0 4 2 0 0 0 1 2 3 3 1 0 0 0 0 0 0 0 0 0 0 9 5 0 0 0 0 0
0 0 0 0 0 0 0 0 0 0 0 0 0 0 0 0 1 0 0 0 2 4 4 4 1 1 2 0 0 0 0 0 0 0 0 0 1 0 2 0 0 0 0
0 0 0 0 0 0 0 0 0 0 0 0 0 0 0 0 0 0 0 1 1 3 4 2 0 0 0 0 0 0 0 0 0 0 0 0 1 2 0 0 0 0 0
0 0 0 0 0 0 0 0 0 0 0 0 0 0 0 0 1 3 0 0 2 4 3 0 1 2 0 0 0 0 0 0 0 0 0 0 0 0 23 5 0 0 0
0 0 0 0 0 0 0 1 2 0 0 0 0 0 1 0 4 2 0 0 0 0 0 0 0 2 0 0 0 0 0 0 0 0 0 0 0 0 18 27 9 6 6
0 0 0 0 0 0 0 0 0 0 0 0 0 0 2 0 0 0 0 1 0 1 0 0 1 0 0 0 0 0 0 0 0 0 0 0 0 18 29 17 35 13 8
CIN
-0 -0 -8 -7 -3 -25 -20 -11 -8 -5 -4 -5 -5 -7 -0 -0 -0 -0 -0 -0 -0 -0 -0 -0 -0 -0 -0 -0 -0 -0 -0 -0 -0 -0 -0 -0 -0 -0 -0 -0 -0 -0 -0
-26 -0 -0 -2 -0 -23 -10 -9 -8 -11 -11 -7 -8 -10 -9 -0 -0 -0 -0 -0 -0 -0 -0 -0 -0 -0 -0 -0 -0 -0 -0 -0 -0 -0 -0 -0 -0 -0 -0 -0 -0 -0 -0
-0 -0 -0 -0 -22 -14 -16 -7 -14 -9 -6 -1 -1 -4 -3 -0 -0 -0 -0 -0 -7 -11 -4 -0 -0 -0 -0 -0 -0 -0 -0 -0 -0 -0 -0 -0 -0 -0 -0 -0 -0 -0 -0
-0 -0 -15 -18 -19 -20 -10 -14 -13 -10 -11 -5 -3 -3 -0 -0 -0 -7 -8 -17 -12 -12 -14 -9 -10 -1 -0 -0 -0 -0 -0 -0 -0 -0 -0 -0 -0 -0 -0 -0 -0 -0 -0
-0 -0 -23 -21 -21 -17 -21 -19 -16 -14 -11 -12 -0 -0 -0 -0 -0 -24 -26 -16 -13 -8 -11 -16 -17 -2 -0 -0 -0 -0 -0 -0 -0 -0 -0 -0 -0 -0 -0 -0 -0 -0 -0
-0 -0 -20 -28 -29 -0 -24 -1 -25 -12 -9 -4 -4 -21 -9 -0 -0 -35 -31 -21 -21 -15 -5 -9 -0 -31 -0 -0 -0 -9 -0 -0 -0 -0 -0 -0 -0 -0 -0 -0 -0 -0 -9
-0 -0 -0 -1 -0 -12 -19 -14 -0 -0 -18 -15 -2 -4 -37 -0 -0 -31 -18 -3 -19 -39 -37 -7 -0 -0 -0 -7 -5 -0 -8 -0 -0 -0 -0 -0 -0 -0 -19 -19 -16 -18 -12
-0 -2 -3 -4 -4 -8 -17 -18 -11 -0 -0 -0 -6 -26 -42 -0 -0 -9 -11 -12 -8 -6 -0 -0 -0 -0 -0 -9 -4 -0 -0 -0 -0 -0 -0 -0 -0 -12 -27 -25 -22 -15 -6
-0 -0 -0 -0 -0 -0 -2 -5 -3 -26 -8 -7 -0 -19 -0 -0 -0 -61 -23 -9 -9 -4 -0 -0 -0 -0 -0 -7 -0 -0 -0 -0 -0 -0 -0 -0 -0 -0 -5 -33 -21 -5 -6
-0 -0 -0 -5 -0 -0 -0 -0 -0 -0 -2 -25 -19 -6 -10 -15 -0 -0 -0 -19 -4 -8 -4 -4 -0 -0 -0 -0 -0 -0 -0 -0 -1 -14 -16 -10 -0 -0 -0 -0 -0 -31 -30
-0 -0 -0 -5 -8 -7 -9 -0 -0 -3 -0 -1 -0 -0 -17 -19 -0 -0 -0 -19 -8 -0 -0 -0 -0 -0 -0 -0 -0 -21 -0 -0 -0 -0 -25 -0 -0 -0 -0 -0 -0 -0 -0
-0 -0 -0 -7 -8 -0 -0 -0 -0 -0 -0 -0 -0 -13 -27 -22 -32 -0 -0 -2 -0 -5 -0 -0 -0 -0 -10 -0 -22 -17 -0 -0 -0 -3 -0 -6 -0 -10 -0 -0 -0 -0 -0
-0 -0 -0 -0 -0 -0 -0 -0 -0 -0 -0 -0 -0 -15 -36 -0 -3 -25 -0 -0 -4 -0 -0 -0 -0 -0 -0 -0 -0 -0 -0 -0 -0 -0 -1 -0 -8 -4 -6 -0 -0 -0 -0
-13 -0 -0 -0 -0 -0 -0 -0 -0 -0 -0 -0 -0 -0 -26 -33 -27 -0 -0 -0 -0 -19 -0 -0 -0 -5 -0 -0 -0 -0 -0 -10 -2 -0 -9 -8 -8 -5 -0 -0 -0 -0 -0
-0 -0 -12 -3 -0 -7 -7 -0 -0 -0 -0 -0 -0 -0 -10 -20 -0 -0 -0 -0 -0 -29 -1 -2 -0 -0 -0 -0 -0 -0 -0 -0 -0 -4 -0 -3 -1 -0 -0 -0 -0 -0 -0
-0 -0 -0 -0 -0 -3 -30 -16 -0 -0 -0 -0 -0 -0 -0 -24 -0 -6 -26 -32 -35 -35 -0 -0 -2 -6 -0 -0 -0 -0 -0 -0 -0 -0 -0 -0 -0 -0 -0 -0 -0 -0 -0
-9 -14 -5 -7 -0 -26 -19 -11 -10 -22 -0 -0 -56 -0 -0 -37 -0 -0 -0 -33 -30 -29 -2 -0 -3 -2 -1 -0 -0 -0 -2 -0 -0 -0 -0 -0 -0 -0 -0 -0 -0 -0 -0
-10 -8 -6 -8 -20 -27 -23 -17 -15 -13 -18 -18 -11 -6 -0 -0 -0 -0 -34 -0 -21 -18 -20 -3 -0 -3 -0 -0 -0 -0 -2 -8 -10 -0 -0 -0 -0 -0 -0 -0 -0 -0 -0
-0 -0 -8 -4 -10 -12 -10 -12 -29 -24 -0 -0 -0 -0 -0 -0 -0 -12 -27 -21 -6 -18 -20 -19 -5 -0 -0 -0 -0 -0 -0 -0 -0 -1 -13 -0 -0 -0 -0 -0 -0 -0 -0
-0 -0 -0 -2 -14 -9 -7 -10 -18 -12 -16 -23 -0 -0 -0 -0 -15 -12 -13 -15 -23 -19 -18 -17 -15 -0 -0 -0 -0 -0 -0 -0 -0 -0 -1 -13 -17 -0 -3 -0 -0 -0 -0
-0 -0 -0 -8 -11 -12 -14 -14 -4 -10 -15 -0 -0 -0 -0 -1 -8 -14 -0 -0 -11 -13 -16 -14 -16 -19 -1 -0 -0 -0 -0 -0 -0 -0 -0 -1 -12 -10 -0 -0 -0 -0 -0
-0 -0 -0 -0 -6 -0 -16 -2 -0 -0 -0 -0 -4 -3 -0 -0 -9 -0 -0 -5 -9 -6 -13 -15 -18 -19 -19 -0 -0 -0 -0 -0 -0 -0 -0 -0 -20 -0 -13 -0 -0 -0 -0
-0 -0 -0 -0 -0 -0 -16 -0 -0 -0 -0 -0 -0 -0 -0 -5 -4 -3 -14 -15 -11 -13 -9 -10 -4 -0 -6 -0 -0 -0 -0 -0 -0 -0 -0 -0 -16 -8 -0 -0 -0 -0 -0
-0 -0 -0 -0 -0 -3 -1 -1 -0 -0 -0 -0 -0 -2 -0 -16 -14 -13 -7 -1 -7 -6 -16 -2 -17 -13 -0 -0 -0 -0 -0 -0 -0 -0 -0 -0 -0 -0 -31 -55 -19 -0 -0
-15 -0 -0 -0 -0 -0 -0 -8 -13 -0 -2 -16 -0 -11 -11 -11 -5 -3 -0 -0 -0 -0 -6 -5 -0 -9 -0 -0 -0 -0 -0 -0 -0 -0 -0 -0 -0 -0 -37 -33 -39 -49 -45
-0 -0 -0 -0 -0 -0 -0 -0 -0 -0 -2 -0 -7 -0 -9 -2 -0 -0 -0 -5 -0 -5 -5 -0 -3 -0 -0 -0 -0 -0 -0 -0 -0 -0 -0 -0 -0 -28 -25 -27 -12 -14 -9
Wind_Speed
35 37 36 37 37 36 35 36 35 35 35 35 34 31 31 29 29 28 27 26 25 24 24 23 22 23 22 22 23 23 23 21 15 9 7 6 9 8 7 8 8 10 10
35 37 37 36 37 36 35 35 35 34 33 35 34 32 28 29 28 27 26 25 26 25 24 23 22 22 21 22 22 22 22 18 7 2 6 7 6 7 5 7 8 10 11
36 37 37 37 36 34 35 33 33 35 36 37 35 34 30 28 27 27 27 25 24 24 24 24 23 23 21 21 21 18 17 14 10 7 5 8 9 8 9 8 8 9 11
36 36 35 33 32 32 31 31 32 33 37 39 39 36 32 29 26 25 25 25 26 23 23 23 24 24 23 21 19 18 14 11 10 7 8 8 10 10 10 10 8 10 10
36 34 34 33 34 32 32 33 32 34 33 34 34 37 28 28 21 19 22 25 27 25 23 22 23 22 22 22 19 18 16 11 9 9 9 11 13 12 12 14 13 11 11
34 32 33 34 34 36 36 34 33 31 30 26 24 25 9 7 12 11 14 25 26 24 22 22 21 22 22 22 20 19 15 13 10 8 9 9 12 14 14 12 11 9 9
32 32 33 33 32 31 29 30 31 30 26 22 23 23 20 8 11 5 5 14 28 26 24 24 22 20 21 18 20 19 18 14 10 9 8 10 12 13 10 9 9 8 9
31 31 32 32 32 32 33 32 29 30 27 26 24 23 21 13 10 6 15 32 32 31 29 26 21 19 17 19 21 21 17 11 10 9 8 9 10 9 9 11 10 11 9
30 31 32 31 31 32 32 33 31 29 27 25 25 22 21 20 11 8 11 15 18 23 28 22 21 20 19 21 21 19 18 11 10 9 10 11 12 12 11 8 8 10 9
28 28 28 29 33 35 35 34 30 29 26 24 23 23 22 19 15 12 18 20 21 20 16 16 13 25 24 22 19 17 15 13 12 10 8 9 9 9 9 8 8 10 15
25 25 26 27 28 30 30 30 29 30 31 29 26 24 24 25 23 18 14 25 24 23 19 17 17 8 22 21 21 15 11 11 10 8 6 5 7 8 7 7 7 8 9
24 24 24 26 26 29 32 32 31 31 30 32 26 24 23 23 23 19 18 22 20 22 23 26 24 24 19 19 15 11 7 7 6 6 6 7 7 7 6 6 8 8 7
22 23 24 25 27 28 30 33 30 27 28 27 26 22 20 18 19 19 18 16 21 25 22 23 26 25 18 2 1 6 4 4 7 6 7 10 10 10 11 12 5 4 5
21 21 22 24 24 25 28 28 29 29 29 27 25 23 21 20 16 16 15 14 14 20 23 23 25 26 24 14 9 10 11 13 12 13 13 14 14 13 11 15 10 3 11
20 20 20 22 22 21 24 23 23 23 22 23 23 21 21 19 15 20 23 17 17 17 20 22 26 23 21 16 10 10 10 11 11 13 12 12 13 16 12 15 11 7 20
22 21 20 20 20 19 19 14 15 16 15 17 15 15 14 15 11 21 25 23 16 22 23 20 21 21 20 15 11 10 9 11 13 15 15 17 16 14 13 11 22 21 22
22 21 20 19 18 18 19 16 13 14 12 13 14 16 20 19 19 19 26 25 19 21 20 19 20 18 14 10 8 6 9 11 14 12 18 18 15 14 16 22 21 20 21
19 20 19 19 18 18 18 18 20 20 21 19 14 18 30 28 17 18 20 28 18 18 18 18 17 19 12 5 2 3 5 5 7 13 17 18 18 21 21 21 20 20 20
20 21 18 18 17 16 19 23 21 21 21 21 25 28 25 17 23 22 23 21 18 17 14 12 12 16 16 7 7 7 7 7 7 7 13 16 17 18 19 19 19 19 18
18 20 21 19 17 21 22 21 20 19 18 20 22 23 19 26 27 23 26 27 24 15 12 10 10 10 15 13 3 9 10 11 11 11 10 10 14 15 15 16 16 16 17
10 15 19 22 20 21 22 21 21 21 20 21 19 19 19 13 17 26 25 24 24 21 19 15 9 6 17 19 8 7 10 14 14 14 14 14 14 16 16 16 16 16 17
15 15 18 20 20 22 21 23 24 24 23 20 18 18 24 23 23 24 25 23 17 16 17 16 15 9 22 28 26 16 15 14 15 16 16 16 15 17 16 16 16 16 17
16 17 19 22 21 23 23 24 25 25 26 26 26 24 24 21 20 23 23 19 15 11 18 20 18 17 22 25 27 26 23 19 17 15 16 16 16 15 14 15 17 17 18
17 16 17 18 20 21 22 23 24 25 25 25 26 26 25 25 24 24 26 23 18 23 25 26 27 27 26 27 27 26 26 24 21 18 17 16 15 15 14 14 16 17 18
19 17 17 17 19 21 20 20 23 25 25 26 25 25 24 25 24 24 23 17 20 23 26 29 28 25 26 29 28 27 27 24 21 18 17 16 17 16 16 16 18 18 18
21 18 19 14 17 20 22 22 22 25 24 24 24 24 24 24 23 24 26 27 29 27 24 29 28 27 29 28 26 25 26 23 19 17 15 15 17 16 16 16 15 14 16
Wind_Direction
24 22 19 19 20 20 21 21 22 21 15 1 356 355 356 351 350 352 351 350 348 343 340 335 330 326 324 323 324 324 320 313 300 324 343 347 333 336 328 47 26 32 22
27 21 22 23 23 24 26 29 26 29 28 19 10 2 359 355 350 344 342 344 347 347 346 342 338 334 332 328 325 327 326 332 343 18 30 10 345 335 339 322 13 27 14
30 30 29 30 31 34 34 37 36 33 27 22 17 9 4 356 347 345 347 349 352 356 1 0 352 345 338 337 336 334 340 0 23 38 33 1 355 330 328 342 337 14 5
36 38 40 46 47 47 48 45 44 43 38 34 30 26 15 359 350 349 353 356 5 13 8 3 355 356 351 345 344 345 343 348 1 8 359 331 336 347 319 315 312 335 15
44 51 52 53 51 51 49 47 48 48 50 48 48 39 358 2 347 341 350 1 10 12 9 357 350 347 346 349 350 347 347 341 340 342 336 320 313 319 306 283 289 310 344
51 56 54 53 53 51 50 50 50 51 55 62 64 66 52 58 350 345 342 3 9 2 354 351 346 347 347 352 359 2 353 341 335 334 322 334 319 307 299 299 307 318 334
54 55 54 53 52 51 53 53 54 57 62 65 66 69 74 52 350 359 319 95 11 5 360 357 353 345 346 347 11 6 2 357 342 318 324 329 324 318 307 303 303 300 329
53 52 51 54 54 54 53 57 62 64 67 68 70 73 75 70 357 71 92 43 49 28 16 8 352 342 334 0 27 17 7 347 337 342 345 353 350 319 298 270 277 281 318
52 51 51 54 53 52 55 60 63 67 70 74 74 77 76 75 34 12 90 96 94 85 66 360 354 349 345 6 19 12 14 349 351 353 8 11 4 8 348 330 302 272 299
57 56 53 53 52 53 57 59 63 66 70 72 74 80 75 75 72 67 86 89 89 87 92 93 355 5 5 8 9 7 6 352 10 2 348 350 352 334 332 315 265 255 219
61 63 59 57 54 53 55 58 63 66 66 72 76 76 78 76 77 76 76 83 84 85 84 90 93 73 3 7 14 359 347 352 359 359 339 304 285 298 286 281 281 266 280
63 62 60 59 61 57 53 56 63 67 69 68 73 74 74 76 76 79 80 79 81 80 80 78 81 81 359 2 354 346 318 316 315 311 278 261 240 224 246 300 326 324 300
63 61 61 62 61 61 58 53 62 67 67 68 69 72 71 71 74 75 75 80 78 75 82 79 75 81 102 57 346 333 295 260 212 240 228 202 201 205 200 9 299 256 326
61 62 62 59 61 63 57 60 60 63 65 70 70 72 70 69 68 69 72 74 84 81 80 81 81 83 93 115 119 134 141 150 163 171 176 176 183 192 198 175 189 245 19
59 64 64 61 62 64 59 62 68 72 73 73 72 73 70 68 65 71 68 72 76 82 85 84 81 87 95 106 121 132 138 152 163 168 178 185 181 172 187 174 179 7 51
56 58 61 61 64 61 61 81 87 86 85 81 79 76 75 75 65 69 66 68 74 75 81 84 87 86 95 108 119 132 146 147 151 155 161 158 167 181 191 208 131 111 94
56 56 62 60 64 63 66 79 91 88 100 91 80 74 70 71 71 67 61 64 75 77 82 85 84 90 106 115 126 139 153 153 151 159 143 149 173 182 178 138 126 113 94
62 61 64 65 67 67 67 72 68 62 61 63 80 67 41 52 69 62 63 56 74 77 81 81 86 85 101 147 217 188 199 209 194 165 147 147 147 129 114 119 106 87 80
63 59 66 63 65 70 65 59 61 60 59 56 41 30 47 63 53 56 56 63 72 77 83 86 88 89 87 112 276 281 272 246 228 229 169 152 144 131 112 95 88 80 92
68 64 59 61 63 56 54 56 61 66 66 56 52 47 50 35 36 52 47 48 57 77 85 91 92 96 88 95 243 284 289 288 284 286 275 253 163 121 123 106 105 92 79
85 63 55 44 49 47 47 50 52 56 54 52 56 53 53 62 61 42 45 51 53 62 69 80 93 103 81 75 299 275 282 295 291 286 296 288 280 86 97 105 79 67 79
52 57 45 41 41 35 39 36 33 36 40 48 53 55 42 44 49 46 49 57 72 73 72 75 77 91 54 22 27 311 300 284 281 289 289 292 296 30 45 72 61 67 86
46 44 35 30 30 25 25 21 20 20 22 22 26 34 39 56 61 53 51 61 73 86 68 60 64 67 54 37 23 16 331 306 284 265 272 292 322 338 335 37 57 70 86
25 31 34 33 29 23 17 15 13 12 12 15 12 16 21 22 31 34 30 46 62 47 37 32 28 27 27 21 15 13 357 330 317 294 277 270 287 294 295 248 125 111 127
24 27 21 25 24 23 23 21 15 8 4 3 6 10 14 12 20 22 30 50 42 37 32 26 23 32 27 20 16 11 358 334 317 298 285 258 232 255 260 254 190 205 209
12 17 18 30 25 20 18 15 13 7 4 1 0 360 5 7 13 11 7 12 7 21 35 22 27 32 23 28 33 33 19 324 308 292 280 270 253 246 242 262 299 319 311